Regional Weather Roundup
Issued by NWS

Home | Current Version | Previous Version | Graphics & Text | Print | Product List | Glossary On
Versions: 1 2 3 4 5 6 7 8 9 10 11 12 13 14 15 16 17 18 19 20 21 22 23 24 25 26 27 28 29 30 31 32 33 34 35 36 37 38 39 40 41 42 43 44 45 46 47 48 49 50
000
ASUS43 KLOT 190409
RWRIL

ILLINOIS REGIONAL WEATHER ROUNDUP
NATIONAL WEATHER SERVICE CHICAGO/ROMEOVILLE IL
1100 PM CDT MON SEP 18 2017

NOTE: "FAIR" INDICATES FEW OR NO CLOUDS BELOW 12,000 FEET WITH NO
SIGNIFICANT WEATHER AND/OR OBSTRUCTIONS TO VISIBILITY.

* THESE STATIONS ARE NOT UNDER NWS QUALITY CONTROL. THEY ALSO MAY NOT
  REPORT WEATHER SUCH AS PRECIPITATION OR FOG.

ILZ001-002-007-009-015-016-024-190500-
NORTHWEST ILLINOIS

CITY           SKY/WX    TMP DP  RH WIND       PRES   REMARKS
MOLINE         CLOUDY    71  66  84 SE3       29.96R
STERLING*        N/A     65  59  81 E6        29.97S
SAVANNA*       CLOUDY    68  56  65 E3        29.98R
$$

ILZ003-004-008-010-011-017-018-190500-
NORTH CENTRAL ILLINOIS

CITY           SKY/WX    TMP DP  RH WIND       PRES   REMARKS
ROCKFORD       CLOUDY    64  55  72 E6        30.00F
FREEPORT*      MOCLDY    64  53  68 E6        30.00F
ROCHELLE*      CLOUDY    65  55  71 E7        29.99S
DE KALB*       MOCLDY    64  57  80 E9        29.99F
PERU*          RAIN      63  57  82 E8        29.97F
$$

ILZ005-006-012>014-019>023-190500-
NORTHEAST ILLINOIS

CITY           SKY/WX    TMP DP  RH WIND       PRES   REMARKS
CHICAGO-OHARE  CLOUDY    66  59  78 NE9       30.00S
CHICAGO-MIDWAY CLOUDY    68  60  75 E12       29.99F
AURORA         CLOUDY    66  57  72 E7        29.99S
LANSING*       CLOUDY    66  63  88 NE5       29.99S
JOLIET*        CLOUDY    68  58  70 NE6       29.97F
WAUKEGAN       CLOUDY    64  32  30 NE6       30.00F
DUPAGE AIRPORT CLOUDY    65  59  81 NE6       30.00R
KANKAKEE*      LGT RAIN  65  59  83 CALM      29.99R
WHEELING       PTCLDY    66  62  87 NE3       30.01F
MORRIS*        CLOUDY    65  55  70 CALM      29.96F
ROMEOVILLE*    CLOUDY    65  58  75 E10       29.98F
NORTHERLY ISL    N/A     67  61  81 NE10        N/A
$$

LMZ740>746-190500-
SOUTHERN LAKE MICHIGAN

STATION/POSITION SKY/WX   TEMP    WIND        PRES    VSBY  WAVE
                          AIR SEA DIR/SP/G                  HT/PER
                          (F)     (DEG/KT/KT) (MB)    (MI)  (FT/S)
SOUTHERN BUOY              67 68   40/  8/  8 1016.4          2/ 5
WILMETTE HARBOR            67 69   50/ 10/ 12   N/A           2/ 4
HARRISON CRIB              68      60/ 11/ 12   N/A
CALUMET HARBOR             67      40/  7/ 10 1015.1F
BURNS HARBOR               67      60/ 10/ 12 1015.9F
MICHIGAN CITY              65      60/  7/  8   N/A
MICHIGAN CITY 6N           67 68   80/  8/ 12   N/A           2/ 4
ST. JOSEPH                 67 69  100/  6/  6 1015.6          2/ 4
$$

ILZ025>027-034>036-040-047-049-050-058-095>099-190500-
WEST-CENTRAL ILLINOIS

CITY           SKY/WX    TMP DP  RH WIND       PRES   REMARKS
QUINCY         CLOUDY    67  66  97 SE5       29.96R
GALESBURG*     CLOUDY    67  67 100 CALM      29.97F
MACOMB*        LGT RAIN  67  67  99 CALM      29.99R
JACKSONVILLE*  CLOUDY    67  67  98 CALM      29.96R FOG
PITTSFIELD*    FOG       66  66  99 CALM      29.98R VSB 1/2
$$

ILZ028>032-037-038-041>044-048-051>054-059>061-190500-
CENTRAL ILLINOIS

CITY           SKY/WX    TMP DP  RH WIND       PRES   REMARKS
PONTIAC        LGT RAIN  66  65  98 CALM      29.98R
BLOOMINGTON    LGT RAIN  68  66  93 NE3       29.97F
DECATUR        LGT RAIN  70  70 100 W3        29.97R
PEORIA         LGT RAIN  69  69 100 E6        29.95F
LACON*         RAIN      64  62  94 E9        29.95F
LINCOLN*       CLOUDY    69  69  99 CALM      29.96R
SPRINGFIELD    CLOUDY    70  69  97 CALM      29.95S
TAYLORVILLE    CLOUDY    69  69 100 CALM      29.97S
$$

ILZ033-039-045-046-055>057-062-063-190500-
EAST-CENTRAL ILLINOIS

CITY           SKY/WX    TMP DP  RH WIND       PRES   REMARKS
RANTOUL*       RAIN      70  70  98 CALM      29.96R
MATTOON        MOCLDY    71  71 100 SW5       29.96R
PARIS*         PTCLDY    70  70  99 SE5       29.97S
$$

ILZ079-100>102-190500-
SOUTHWEST ILLINOIS

CITY           SKY/WX    TMP DP  RH WIND       PRES   REMARKS
ALTON          LGT RAIN  67  67 100 SE6       29.96F
BELLEVILLE     MOCLDY    70  66  85 E3        29.98F
CAHOKIA*       LGT RAIN  71  68  90 SE3       29.95F
SPARTA*        LGT RAIN  73  71  92 W3        29.99R
$$

ILZ064>066-069>071-074>076-080>082-084>086-088>090-092>094-190500-
SOUTH-CENTRAL ILLINOIS

CITY           SKY/WX    TMP DP  RH WIND       PRES   REMARKS
CARBONDALE     CLOUDY    71  71 100 CALM      29.95F FOG
CAIRO*         CLOUDY    70  70 100 CALM      29.95F FOG
EFFINGHAM*     CLOUDY    73  71  95 SW3       29.99R
MARION         CLOUDY    73  73 100 SE6       29.97S
MT. VERNON       N/A     73  69  87 S5        29.97R
CENTRALIA*     CLOUDY    74  71  93 CALM      29.96S
SALEM*         CLOUDY    74  70  86 CALM      29.97S
METROPOLIS*    PTCLDY    72  71  97 CALM      29.97F
$$

ILZ067-068-072-073-078-083-087-091-190500-
SOUTHEAST ILLINOIS

CITY           SKY/WX    TMP DP  RH WIND       PRES   REMARKS
LAWRENCEVILLE  CLOUDY    70  69  97 SE3       29.97S FOG
FLORA*         CLOUDY    72  68  86 S6        29.97S
FAIRFIELD*     CLOUDY    70  69  98 CALM      29.96R
HARRISBURG*    PTCLDY    69  69 100 CALM      29.97S FOG
ROBINSON*      CLOUDY    69  69  99 S3        29.97S
CARMI*         CLOUDY    69  69 100 SE3       29.96S FOG
$$

ABBREVIATIONS USED IN REMARKS
   TC - TEMPERATURE IN CELSIUS
  WCI - WIND CHILL INDEX
   HX - HEAT INDEX
  VSB - VISIBILITY
$$





USA.gov is the U.S. government's official web portal to all federal, state and local government web resources and services.